Find Starlink 3675

NORAD ID: 51963 Int'l Des: 2022-025 Owner: SPXS Country: US Constellation: starlink operational
LEOCIRCULAR

Live Position

Loading 3D Globe...

About Starlink 3675

Description loading...

Upcoming Passes

Passes for default location (London). Set your location on the main map for personalized predictions.

Altitude History

Loading altitude history...

Two-Line Element Set

1 51963U 22025H 26125.23198055 .00000415 00000-0 25152-4 0 9993
2 51963 53.1609 110.6719 0001243 85.1599 274.9544 15.31699592229831
Epoch: May 5, 2026 • Age: 28 hours

Current Status

Altitude 480.8 km
Velocity 7.62 km/s
Sub-Earth Point -31.10°S, 70.54°E
Launch Date Mar 9, 2022
Age 4.1 years
Type internet

Technical Details

Classification Payload
Mass 297.00 kg
Dry Mass 275.00 kg
Total Mass 297.00 kg
Length 0.20 m
Diameter 2.80 m
Span 9.00 m
Shape Box + pan
Manufacturer SPXS
Bus Type Starlink
Phase Status In Orbit
Owner/State SPXS/US

Most Searched